Location: Godiavel Galaoual
(15.2485°N, 12.6604°W)
Time: 00:10:27
(UTC+00:00)

UKube-1 - Visible Passes

Search period start: 26 July 2021 00:00
Search period end: 05 August 2021 00:00
Orbit: 612 x 617 km, 98.4° (Epoch: 25 July)

Date Brightness Start Highest point End Pass type
(mag) Time Alt. Az. Time Alt. Az. Time Alt. Az.
26 Jul ? 20:06:11 10° ENE 20:08:38 15° E 20:08:48 15° ESE visible
26 Jul ? 21:40:56 10° NNW 21:44:23 24° WNW 21:45:51 20° WSW visible
27 Jul ? 20:20:49 10° NE 20:24:17 24° E 20:24:30 24° ESE visible
27 Jul ? 21:57:27 10° NW 21:59:56 15° WNW 22:01:32 13° W visible
28 Jul ? 20:35:55 10° NNE 20:39:56 39° E 20:40:11 38° ESE visible
29 Jul ? 20:51:18 10° NNE 20:55:34 66° ESE 20:55:52 63° SE visible
30 Jul ? 21:06:53 10° N 21:11:10 75° WNW 21:11:32 69° WSW visible
31 Jul ? 21:22:41 10° N 21:26:46 44° WNW 21:27:12 42° W visible
01 Aug ? 20:04:31 10° ENE 20:05:50 13° E 20:05:50 13° E visible
01 Aug ? 21:38:42 10° NNW 21:42:19 27° WNW 21:42:52 26° W visible
02 Aug ? 20:18:56 10° NE 20:21:29 20° E 20:21:29 20° E visible
02 Aug ? 21:55:05 10° NNW 21:57:52 17° WNW 21:58:32 17° W visible
03 Aug ? 20:33:56 10° NE 20:37:09 32° E 20:37:09 32° E visible
03 Aug ? 22:12:39 10° WNW 22:13:24 10° WNW 22:14:09 10° W visible
04 Aug ? 20:49:15 10° NNE 20:52:47 50° ENE 20:52:47 50° ENE visible
